Regional Weather Roundup
Issued by NWS Kansas City/Pleasant Hill, MO

Home | Current Version | Previous Version | Graphics & Text | Print | Product List | Glossary Off
Versions: 1 2 3 4 5 6 7 8 9 10 11 12 13 14 15 16 17 18 19 20 21 22 23 24 25 26 27 28 29 30 31 32 33 34 35 36 37 38 39 40 41 42 43 44 45 46 47 48 49 50

000
ASUS43 KEAX 251411
RWREAX

WEATHER ROUNDUP FOR EASTERN KANSAS AND NORTHWEST MISSOURI
NATIONAL WEATHER SERVICE KANSAS CITY/PLEASANT HILL MO
900 AM CDT MON MAY 25 2015

KSZ040-057-103>105-MOZ028-029-037-043-251500-
...KANSAS CITY METROPOLITAN AREA...

CITY           SKY/WX    TMP DP  RH WIND       PRES   REMARKS
K.C. INTL      CLOUDY    63  61  93 SE10      29.89F
K.C. DOWNTOWN  RAIN      64  59  83 SE10      29.88F
LEES SUMMIT    MOSUNNY   64  60  87 SW5       29.96S
OLATHE - IXD   PTSUNNY   62  61  96 E12       29.90F
OLATHE - OJC   LGT RAIN  63  62  97 SE9       29.91F
LAWRENCE       CLOUDY    64  60  87 SE13      29.88F

$$

MOZ001>008-011>017-020>025-030>033-038>040-044>046-053-054-251500-
...NORTHERN AND CENTRAL MISSOURI...

CITY           SKY/WX    TMP DP  RH WIND       PRES   REMARKS
ST. JOSEPH     CLOUDY    64  60  87 S14G24    29.84F
MOSBY          PTSUNNY   66  59  77 S8        29.95F
WARRENSBURG    CLOUDY    63  59  88 SW6       30.00R FOG
WHITEMAN AFB   CLOUDY    65  61  88 S9        29.97R
CLINTON        CLOUDY    64  64 100 S8        29.97S FOG
SEDALIA        CLOUDY    66  61  84 S7        29.99R
WARSAW         NOT AVBL
CHILLICOTHE      N/A     66  62  87 SW10      29.96R
KIRKSVILLE     CLOUDY    65  63  93 SW7       29.95R

$$

MOZ041-047>049-056>058-063>065-088>090-097-251500-
...EASTERN AND SOUTHERN MISSOURI...

CITY           SKY/WX    TMP DP  RH WIND       PRES   REMARKS
ST. LOUIS INTL NOT AVBL
SPIRIT OF STL  PTSUNNY   71  62  73 W14       30.00R
COLUMBIA       CLOUDY    65  61  87 SW12      30.00R
JEFFERSON CITY PTSUNNY   67  60  78 SW9       30.00R
ROLLA          MOSUNNY   68  62  81 SW14      30.00R
OSAGE BEACH    CLOUDY    66  61  82 SW7       30.01R
SPRINGFIELD    PTSUNNY   68  64  87 S13       29.98S
BRANSON        MOSUNNY   68  66  94 SE9       30.02R
JOPLIN         CLOUDY    70  66  87 S10       29.95S
WEST PLAINS    CLOUDY    71  66  84 SW9       30.03S

$$

IAZ060-094-KSZ022-034>040-054-083-096-NEZ052-066-093-251500-
...KANSAS...SOUTHEAST NEBRASKA AND IOWA...

CITY           SKY/WX    TMP DP  RH WIND       PRES   REMARKS
TOPEKA         PTSUNNY   64  61  90 SE9       29.86R
MANHATTAN      PTSUNNY   65  60  84 SE6       29.84R
EMPORIA        CLOUDY    61  58  90 SE12      29.89R
CHANUTE        PTSUNNY   65  64  97 E7        29.93F
WICHITA        PTSUNNY   63  60  90 SE16      29.85S
OMAHA          PTSUNNY   65  59  81 S9        29.79F
LINCOLN        CLOUDY    63  58  83 W3        29.83R
FALLS CITY     CLOUDY    63  58  83 S15G25    29.80R
LAMONI         PTSUNNY   67  61  81 SW17G26   29.90R
DES MOINES     CLOUDY    67  62  84 SW12      29.82F

$$




USA.gov is the U.S. government's official web portal to all federal, state and local government web resources and services.